Wind_Speed
26 26 25 23 22 21 20 19 19 18 18 18 19 19 20 21 21 21 22 21 21 21 21 21 21 21 20 20 20 20 20 20 19 19 19 18 18 18 18 19 20 21 21 21 21 20 21 22 20 21 22 22 23 26 26 28 32 34 33 33 32 32 33 33 31 28 27 27 28 27 26 23 20 19 20 19 17 17 14 8 8 11 14 13 11 10 11
28 28 27 25 24 23 21 20 20 19 19 19 19 19 20 21 22 22 22 22 22 22 22 22 21 21 20 20 20 19 19 18 18 17 17 17 17 17 16 16 18 19 19 20 20 19 20 20 20 20 20 21 24 25 28 32 36 37 37 36 35 35 35 32 31 30 28 28 29 27 24 21 18 17 18 17 14 12 9 9 10 11 13 12 7 5 10
30 29 28 27 26 25 23 22 22 21 20 20 19 19 20 21 22 23 22 22 22 23 23 22 22 22 21 20 20 19 18 17 16 16 15 15 15 14 14 14 15 18 19 19 19 19 18 18 18 17 18 22 26 28 32 36 37 35 35 36 36 35 32 28 27 28 27 27 26 24 22 20 18 17 17 16 14 12 11 10 10 11 12 12 6 4 9
33 32 30 29 28 27 26 25 24 23 22 21 21 20 20 20 22 23 23 23 23 23 24 23 23 23 21 20 20 19 18 16 15 14 14 13 12 12 12 12 14 17 18 18 19 18 17 17 17 17 21 26 28 30 33 33 31 31 33 35 35 32 28 26 24 25 26 26 25 23 21 19 17 17 16 15 14 12 11 10 11 12 13 11 6 5 8
35 34 33 32 31 30 29 27 26 26 24 23 22 22 21 20 21 23 24 24 23 22 23 24 24 23 21 21 20 19 17 16 15 13 13 12 11 10 10 11 14 17 17 17 18 17 16 17 19 22 25 27 29 31 29 27 29 33 36 35 33 30 28 26 23 23 24 24 24 22 20 18 16 16 15 13 12 11 11 11 12 13 12 11 8 5 8
39 37 36 35 34 33 32 30 29 28 27 25 24 23 22 21 22 23 24 24 24 23 22 23 24 23 22 22 21 18 16 15 14 13 11 11 9 9 12 12 12 13 14 16 17 15 16 19 21 23 24 26 29 29 28 30 35 39 37 34 31 31 30 28 25 24 22 21 20 19 19 18 15 14 13 12 13 12 12 12 12 13 11 10 9 5 6
42 40 39 38 37 36 35 33 32 31 29 28 26 24 24 23 22 23 24 25 25 23 22 22 24 23 23 22 21 19 17 15 14 12 11 10 9 11 13 11 8 10 13 15 16 15 16 17 18 19 22 26 30 31 34 38 41 38 35 34 33 32 30 27 25 24 21 20 19 17 16 15 14 13 12 11 12 12 12 11 12 12 10 9 9 6 5
44 43 42 42 40 39 37 36 35 34 32 30 28 26 25 25 24 23 25 25 25 24 22 22 24 24 23 22 21 20 18 16 15 13 11 7 6 9 10 7 7 10 11 13 14 14 15 15 15 19 24 28 32 35 38 39 36 34 33 33 33 31 30 27 25 23 22 20 19 17 14 13 14 13 11 10 10 10 10 10 9 9 8 8 6 4 5
46 45 45 44 43 42 40 39 38 37 35 33 31 29 28 26 25 24 25 26 26 25 23 22 23 24 23 22 21 20 19 18 17 15 15 12 9 12 11 9 9 8 8 12 14 12 11 11 15 22 25 29 34 36 37 36 34 34 34 32 31 30 28 27 25 24 23 20 18 17 16 14 13 11 9 8 7 6 7 7 6 6 5 3 1 2 4
47 47 46 46 45 44 43 42 40 39 38 36 33 31 30 28 27 26 25 26 27 25 23 22 23 23 23 23 22 21 20 19 17 17 19 18 16 18 17 15 14 11 10 13 14 13 11 9 15 23 24 28 34 35 34 34 33 33 33 31 31 29 27 26 24 23 22 20 18 18 16 13 10 10 8 6 5 5 6 7 6 4 4 3 3 5 8
49 48 48 47 46 46 45 44 43 41 40 38 35 34 33 30 28 27 26 27 27 26 23 22 22 23 24 23 22 20 20 20 18 19 21 20 19 20 20 19 18 14 12 13 14 15 15 10 13 22 25 29 33 32 31 31 32 32 32 32 31 29 27 26 23 21 20 19 18 17 15 12 10 10 8 8 8 6 7 7 5 4 5 5 6 10 12
51 50 49 48 47 47 46 45 44 43 42 40 38 36 35 32 30 29 28 28 27 26 25 22 22 24 25 23 22 22 22 22 22 20 20 21 21 22 20 19 17 14 12 13 13 16 19 14 14 21 26 28 31 31 29 30 31 30 30 30 29 28 26 25 22 19 18 17 16 15 13 12 11 10 11 13 11 7 7 7 5 4 5 6 8 10 9
53 52 52 50 49 48 47 47 46 45 44 42 40 38 37 35 32 31 30 29 28 27 24 21 23 26 25 23 22 23 23 24 24 22 20 21 21 21 19 18 17 15 13 13 14 16 19 18 18 24 28 27 29 31 31 30 30 29 29 29 28 27 26 25 23 21 18 16 13 12 13 13 13 13 14 14 11 8 8 7 5 5 7 8 9 9 8
55 55 54 53 51 50 48 48 47 46 46 44 42 40 39 37 34 33 32 30 30 28 25 24 25 26 23 23 24 25 24 24 24 24 24 24 22 20 19 19 19 19 17 16 16 17 21 23 23 26 29 28 28 30 32 31 30 29 29 29 28 27 27 24 22 22 19 15 12 11 12 13 13 14 14 13 10 9 9 8 7 7 8 11 11 9 10
59 58 56 55 54 52 51 49 48 48 47 46 44 42 41 39 36 35 33 31 31 30 28 27 26 23 23 25 27 26 24 23 24 25 25 25 23 22 22 21 21 21 21 20 19 19 23 27 28 28 30 30 29 28 29 31 32 32 31 29 28 28 26 22 21 21 19 15 13 12 13 14 14 14 14 13 12 10 10 11 12 11 11 12 12 10 11
62 61 59 58 56 55 54 52 50 49 48 47 46 44 42 40 38 36 35 33 32 31 28 27 27 26 28 30 28 25 24 24 25 25 25 25 25 26 25 24 22 21 22 21 19 20 25 28 30 31 32 32 31 29 28 28 29 31 31 28 27 27 26 23 22 22 20 18 16 14 15 15 15 14 15 15 13 12 12 13 14 14 12 12 12 12 13
65 63 62 61 59 58 56 55 53 52 50 49 47 45 43 41 39 39 37 35 34 32 29 30 32 32 30 27 23 20 21 23 24 24 24 25 26 27 27 25 22 21 22 21 19 22 26 27 30 33 33 31 29 28 27 27 27 28 29 27 27 26 25 23 22 22 22 20 17 15 15 15 15 14 15 16 14 13 13 14 15 14 12 12 13 14 15
68 67 65 64 62 60 59 58 56 54 53 51 49 47 44 43 42 41 39 37 36 33 32 35 34 30 27 25 23 23 25 27 27 25 24 24 24 25 26 26 23 23 23 23 21 22 26 27 29 31 30 28 27 26 25 25 25 24 25 26 26 25 23 23 24 25 23 21 19 17 15 14 15 16 15 16 15 13 13 15 17 16 13 13 15 16 17
72 70 68 67 65 63 62 60 58 56 56 54 51 49 47 45 43 41 39 38 37 34 34 35 32 27 26 27 28 29 29 27 27 26 24 23 23 24 24 24 24 24 25 25 24 24 26 28 28 27 26 25 26 25 22 22 22 22 23 23 24 25 24 24 26 26 23 21 20 18 15 14 16 17 16 14 12 13 15 18 20 20 17 15 15 16 18
76 74 72 70 69 67 65 63 61 59 58 56 54 51 49 47 44 42 41 40 38 35 35 36 32 30 31 30 30 30 27 25 25 25 26 27 28 27 25 24 25 25 25 26 28 28 28 28 28 27 24 21 21 22 23 22 21 21 22 22 22 23 22 22 23 22 20 18 19 19 18 18 18 17 16 14 12 15 18 19 21 22 21 18 16 16 19
81 78 76 73 72 70 68 66 63 61 60 59 57 54 51 49 46 44 42 41 40 37 37 38 36 36 35 34 33 32 30 28 29 30 31 33 33 29 26 25 25 24 24 28 30 28 27 28 29 27 24 23 24 25 25 23 21 22 24 24 24 23 21 21 22 21 20 18 18 19 20 20 21 20 17 16 15 18 20 19 18 21 22 20 20 21 21
85 83 80 77 75 73 71 68 66 64 62 61 59 56 53 51 49 46 43 42 41 40 40 41 40 38 36 35 34 33 32 31 32 32 33 33 30 27 25 26 28 29 30 32 31 28 28 30 31 27 25 27 29 28 26 23 23 26 26 24 24 24 22 23 23 22 21 20 19 20 23 23 22 21 19 18 18 19 21 19 18 20 21 22 24 25 22
89 86 84 81 79 76 74 71 69 66 64 62 61 59 56 53 51 48 45 44 43 43 44 44 41 39 38 36 34 33 33 33 32 32 33 32 29 27 26 27 31 33 33 34 34 33 32 34 34 31 29 30 31 29 27 26 27 28 26 23 23 24 23 23 22 21 21 20 18 20 24 25 23 21 20 20 19 18 17 16 18 21 22 22 25 25 22
94 90 87 85 83 80 77 74 71 69 66 64 63 62 59 56 53 50 47 47 45 45 46 45 42 42 40 36 34 33 34 34 33 33 34 31 28 28 29 31 33 34 34 35 36 36 34 35 35 35 33 33 33 30 29 29 29 30 29 26 24 24 24 23 23 23 24 23 21 22 25 25 24 23 19 18 19 18 18 18 19 21 22 24 26 25 23
97 94 91 88 85 83 81 77 74 71 68 66 65 64 61 57 55 53 51 49 47 45 46 45 44 42 40 38 38 38 36 35 35 34 33 31 29 31 35 36 36 36 36 38 39 38 36 35 35 36 36 35 33 32 31 30 29 30 30 27 25 25 26 26 26 25 26 27 27 28 28 26 24 23 21 19 20 21 23 24 22 19 22 27 29 27 26
100 97 95 91 89 86 83 80 76 73 70 68 67 66 63 60 58 56 53 50 48 47 48 48 46 44 43 43 42 39 36 36 36 34 34 33 33 34 36 36 36 36 37 39 40 41 40 38 36 38 38 36 34 33 32 30 30 30 29 28 27 27 28 27 26 25 26 27 28 29 30 27 25 25 25 24 22 21 23 24 23 23 26 31 34 36 37
103 100 98 95 92 89 86 82 78 75 73 71 68 67 66 63 60 57 54 53 51 49 49 50 47 45 45 44 41 38 37 38 37 35 35 35 35 36 35 35 35 36 37 38 41 44 45 42 40 40 40 38 37 36 33 33 34 32 30 29 27 26 26 26 25 24 24 26 28 29 30 29 27 27 29 29 26 24 23 23 25 28 34 38 40 41 43
105 102 100 97 94 91 88 84 80 78 76 73 71 70 68 65 62 59 56 55 52 49 49 49 46 43 44 45 42 41 41 40 38 37 37 37 37 37 36 35 34 35 37 40 42 45 47 46 45 44 41 38 39 39 37 37 36 35 34 33 31 29 28 28 27 25 26 28 30 30 30 30 29 28 30 31 31 28 27 26 26 29 34 40 41 40 39
105 103 100 98 95 93 90 86 83 80 79 76 74 72 70 67 64 61 58 56 53 52 52 51 47 47 48 47 45 44 43 41 40 39 39 38 39 38 37 35 34 36 39 41 43 46 49 49 49 47 42 40 42 43 42 40 39 37 38 37 35 33 33 31 28 27 28 29 31 32 32 31 30 30 30 32 32 30 29 29 28 28 31 35 37 37 37
104 102 100 98 96 94 91 88 85 83 81 78 76 73 70 67 65 62 59 58 57 55 54 51 50 50 50 48 47 46 45 42 41 41 40 40 40 39 38 37 36 36 39 41 42 45 48 49 48 47 46 47 47 45 44 45 44 41 39 37 36 35 33 31 29 29 28 29 31 33 34 32 31 31 32 32 31 29 29 29 28 28 29 33 35 36 36
102 101 99 97 96 94 92 89 87 85 82 79 76 73 70 67 67 65 62 60 59 57 54 52 51 51 49 48 49 48 46 44 43 43 42 41 41 40 39 39 38 37 38 39 41 43 44 47 49 49 49 50 48 45 45 46 45 42 39 37 36 34 32 32 33 31 29 30 31 32 33 34 33 33 33 32 32 32 31 31 30 30 30 33 35 37 36
101 100 98 97 95 94 93 90 88 86 82 79 77 74 71 70 70 67 65 62 61 59 56 54 53 52 51 51 51 49 47 46 46 45 43 43 42 42 41 41 39 38 37 38 40 42 44 48 51 51 51 51 50 48 47 45 43 43 42 39 37 36 35 36 36 34 32 32 33 33 34 35 35 34 33 32 33 33 33 32 32 33 34 36 37 37 35
100 99 98 96 95 94 93 91 89 86 83 81 79 77 75 74 72 69 67 64 62 60 58 56 54 53 53 53 52 51 49 48 47 46 45 45 44 43 43 42 40 39 38 39 42 44 46 47 48 49 52 53 51 50 49 46 44 44 43 40 40 41 40 38 39 39 37 35 35 34 35 37 37 36 34 32 33 34 34 34 33 34 35 37 38 38 35
100 99 98 96 95 94 94 92 90 88 85 83 81 79 78 75 72 70 68 65 63 61 60 57 55 55 55 54 52 51 50 49 48 47 47 46 45 44 44 43 42 40 40 40 41 43 44 45 45 47 51 52 51 50 50 49 47 47 45 42 42 42 40 38 39 40 40 39 37 36 35 37 38 37 35 35 35 36 37 36 35 34 35 37 39 38 35
99 99 98 96 95 94 94 93 91 88 85 83 81 80 79 76 72 69 67 65 63 61 59 57 56 57 56 54 53 52 52 51 50 49 48 47 46 46 45 44 43 42 42 41 40 40 42 43 44 46 48 49 48 48 50 52 51 49 48 47 45 43 41 39 38 37 38 39 39 37 36 38 40 40 39 39 39 38 38 37 36 36 36 37 37 36 34
98 98 97 96 95 94 94 92 90 87 85 83 82 80 79 76 72 69 67 65 64 62 61 61 60 59 58 56 55 55 55 53 51 50 49 48 48 47 45 43 43 43 43 41 40 39 40 42 44 46 46 46 46 48 51 52 50 46 45 47 47 46 45 42 39 37 38 40 39 38 39 41 42 42 41 40 39 40 39 38 38 37 36 35 35 34 31
97 98 97 96 95 94 93 92 89 86 84 84 83 82 80 78 74 71 68 66 65 64 64 63 62 60 60 59 57 56 55 54 52 52 50 49 48 47 45 44 45 45 44 43 41 40 40 41 43 45 45 45 46 47 49 48 46 45 44 44 46 47 46 42 40 40 41 43 42 41 42 44 44 44 43 41 40 41 40 39 39 37 35 34 33 32 29
96 97 96 95 94 92 90 89 87 85 85 85 86 84 82 79 75 71 68 66 65 65 65 64 63 62 61 59 56 55 55 54 53 52 50 49 49 48 47 46 46 46 45 44 43 42 41 41 41 41 43 45 46 46 45 44 45 48 49 46 45 46 46 44 44 45 45 46 45 44 45 46 46 45 45 44 42 41 41 40 39 36 34 33 32 30 27
94 95 95 94 92 90 89 87 87 86 86 87 87 85 82 78 75 71 68 66 65 66 66 64 64 63 61 58 56 56 55 55 55 53 51 50 51 49 48 48 47 46 46 46 45 44 43 41 39 40 41 43 44 44 43 43 45 48 50 49 47 47 48 48 48 49 48 47 47 46 45 46 45 44 44 45 43 41 40 39 37 35 34 33 31 28 26
91 92 93 92 91 89 89 89 89 89 89 88 88 86 82 79 75 71 68 66 65 65 65 65 65 64 61 59 58 58 57 56 56 54 51 51 52 50 49 49 47 46 46 47 46 45 43 41 40 41 40 40 42 42 42 43 44 45 46 47 47 48 49 49 49 49 48 47 46 46 44 43 42 41 42 42 42 40 38 37 35 34 33 31 29 27 26
88 89 90 90 90 90 90 90 90 90 89 88 88 86 83 80 76 72 69 67 65 64 65 66 67 65 62 60 60 59 57 55 55 54 52 53 54 52 51 50 47 45 46 47 47 45 44 42 42 42 41 40 40 40 39 40 42 43 44 44 45 45 47 48 48 47 46 44 43 43 42 41 39 39 39 39 39 38 35 33 32 32 31 29 27 26 26
86 87 88 90 90 91 91 91 90 89 88 87 87 86 84 80 76 72 69 67 65 65 68 69 68 66 64 63 62 60 57 55 55 56 55 55 55 53 52 50 47 45 47 49 48 46 46 44 43 44 43 42 42 41 40 40 41 42 41 41 41 43 44 45 45 44 42 41 40 40 40 40 39 38 37 36 35 34 32 30 29 29 29 28 27 26 26
85 87 89 91 92 92 91 91 91 90 88 85 84 83 82 78 75 72 70 69 68 68 69 70 69 67 67 65 63 61 59 58 58 58 57 56 55 54 53 51 48 47 50 51 49 47 47 47 46 45 46 45 44 42 41 42 43 41 39 38 39 40 41 42 42 40 39 39 38 37 38 38 36 34 34 33 32 31 30 29 28 29 28 28 27 26 26
84 87 89 90 90 89 89 90 89 88 86 83 80 79 78 75 73 71 70 71 70 69 69 69 69 69 67 65 62 61 60 60 59 59 59 58 58 57 55 54 52 51 52 53 50 47 47 48 47 47 47 46 43 41 42 44 44 42 40 39 39 40 40 40 40 39 38 38 37 36 36 36 34 33 33 33 32 32 31 31 30 30 30 29 28 28 28
82 83 84 84 84 85 85 85 85 84 83 81 78 77 76 75 73 73 74 75 74 72 71 71 70 69 67 65 63 63 62 61 61 61 61 61 61 60 59 58 57 56 55 54 51 48 47 48 48 48 48 46 43 43 45 46 44 41 40 41 41 41 41 41 40 39 39 39 38 38 37 37 36 35 35 35 34 33 33 32 32 32 32 31 31 31 31
79 79 79 79 78 78 78 78 78 79 81 81 80 79 78 78 77 77 78 79 77 75 73 72 72 71 69 67 66 66 65 63 63 63 63 62 62 62 60 59 58 57 56 54 52 49 48 49 49 50 49 47 45 45 47 46 44 41 41 41 41 41 41 40 40 39 39 39 39 38 38 37 36 35 35 35 35 34 34 33 33 32 32 32 32 32 32
76 76 75 74 74 72 72 73 75 77 80 81 82 81 81 81 81 81 81 80 79 76 74 73 73 71 70 69 69 68 66 65 65 65 63 62 63 63 62 60 58 57 56 55 53 52 51 51 51 51 49 47 46 47 48 47 45 43 43 43 42 41 41 41 40 40 40 39 39 38 38 37 36 36 36 36 35 35 34 34 33 32 32 32 31 31 31
73 73 72 70 69 69 69 71 73 75 77 80 81 82 83 83 82 82 82 82 80 77 75 73 72 71 71 70 70 69 67 66 66 65 63 62 63 62 61 59 58 57 57 56 56 56 55 54 53 52 49 47 48 50 50 48 47 46 46 45 44 43 43 43 42 41 41 41 40 40 39 38 38 38 37 36 36 36 35 34 34 33 33 33 32 32 32
71 70 69 68 67 67 68 69 71 72 75 77 80 82 83 83 82 82 83 82 79 77 75 73 72 72 72 71 71 69 67 67 66 65 64 62 61 60 60 60 60 59 59 59 59 60 59 57 55 54 52 51 53 54 53 50 50 49 48 47 47 46 45 45 44 44 43 42 42 41 41 41 40 40 39 38 38 37 37 36 36 35 35 35 34 34 33
69 68 67 67 66 66 67 68 69 72 74 76 78 80 81 81 82 82 81 80 78 77 75 73 72 72 71 71 71 70 69 68 67 66 65 63 61 61 61 61 61 61 61 62 63 64 62 60 58 58 57 57 57 57 55 53 52 50 49 48 48 48 47 47 47 46 45 44 44 43 43 43 43 42 42 41 40 39 39 38 38 38 37 37 37 37 36
69 68 67 66 65 65 66 68 70 72 74 76 77 79 79 80 81 81 80 79 78 77 75 74 73 72 72 72 71 71 70 69 67 66 65 64 63 61 60 61 63 64 64 63 64 64 62 61 60 61 61 61 61 60 58 56 54 52 51 50 50 49 49 48 48 47 47 47 47 46 46 46 46 45 44 43 43 42 42 41 41 40 40 39 39 39 39
69 68 66 66 65 66 67 68 70 73 75 77 78 79 80 80 80 80 80 79 78 77 76 75 74 72 72 71 71 71 70 69 67 66 66 65 64 63 62 63 64 64 64 64 63 62 62 63 64 64 65 65 64 63 61 60 58 56 54 53 53 52 51 50 49 49 50 50 50 50 50 50 49 48 47 46 45 45 44 43 43 42 42 41 41 41 41
Wind_Direction
237 238 238 237 238 240 242 244 245 245 247 249 249 249 249 248 247 246 245 244 242 242 242 242 243 244 245 245 246 246 247 247 248 248 249 251 253 253 255 257 257 255 254 254 253 252 251 251 247 241 236 228 221 219 214 204 197 193 191 191 192 193 195 197 201 205 206 204 204 208 212 214 212 211 212 214 220 224 226 232 242 244 248 245 237 229 212
239 241 241 240 240 241 242 244 245 245 247 249 250 250 250 250 248 246 246 245 243 242 242 242 243 243 243 244 246 247 247 248 249 250 252 252 254 256 258 260 262 261 258 256 255 253 254 253 244 236 228 218 213 211 204 197 195 193 188 186 190 196 198 199 201 203 201 201 203 205 208 211 209 207 211 217 224 224 220 230 238 243 251 252 243 223 206
241 242 244 244 244 243 243 245 246 247 247 248 251 252 251 252 251 248 247 245 243 242 242 242 242 243 243 243 245 246 247 248 249 250 251 251 255 258 256 258 266 266 261 258 256 253 251 247 241 233 219 211 209 206 200 197 197 194 189 189 194 199 199 199 203 204 200 199 202 204 205 205 204 206 209 213 217 216 217 230 243 250 256 259 255 219 206
241 243 244 245 246 245 245 246 248 249 249 249 251 252 252 253 253 251 248 246 244 242 241 242 242 242 243 243 244 245 246 247 249 249 250 249 250 251 252 263 274 272 265 261 258 254 248 240 229 218 211 208 205 202 201 200 194 186 184 190 196 198 199 200 204 205 202 199 201 205 206 204 205 209 209 211 216 220 224 233 245 250 257 265 262 229 219
241 242 243 244 246 247 247 247 249 251 251 251 251 252 253 254 253 252 249 246 245 243 241 241 241 241 241 242 243 243 243 246 247 246 246 244 239 236 237 249 267 273 271 264 259 253 244 233 218 211 212 208 201 198 195 188 183 182 185 190 193 194 196 200 202 202 202 202 204 206 205 202 206 211 211 213 220 225 230 235 242 250 260 264 253 219 212
241 241 242 243 244 246 247 248 249 251 252 253 253 253 254 254 254 253 251 248 245 242 241 241 241 240 239 240 241 241 240 242 240 239 238 233 225 219 218 225 252 274 278 270 261 251 238 228 220 218 215 205 197 190 180 176 181 185 187 188 189 193 197 198 198 197 197 200 204 206 204 201 207 213 214 219 225 228 232 236 241 248 255 253 243 223 209
242 241 242 242 243 244 246 247 249 250 251 253 254 254 255 254 254 253 252 249 246 242 240 240 240 239 237 238 237 236 234 234 232 229 224 222 219 214 214 224 258 279 279 272 263 251 240 231 224 225 217 201 190 182 178 183 187 187 186 185 188 194 199 199 198 194 192 194 197 200 201 200 203 209 213 220 228 229 230 234 240 247 254 251 242 227 201
242 242 242 243 243 243 245 247 248 249 250 251 252 253 255 254 254 253 253 251 247 243 239 239 239 237 236 236 234 232 229 226 225 218 200 194 224 225 220 236 277 288 283 272 263 250 237 226 215 214 209 196 187 182 185 189 189 186 186 187 190 195 198 197 196 193 192 193 194 196 197 198 203 208 211 217 220 220 225 233 239 241 245 249 239 199 178
243 243 243 243 244 244 244 246 247 249 249 250 251 252 253 254 253 253 253 251 248 244 239 238 238 237 235 234 231 228 225 221 220 209 186 174 199 215 211 219 244 262 259 253 256 244 223 214 209 208 204 194 188 186 188 189 187 186 188 191 195 198 197 197 195 193 192 192 192 195 197 200 203 203 206 210 205 212 226 225 222 225 232 245 226 157 185
244 243 243 243 244 244 244 244 246 248 248 249 249 250 251 252 252 252 253 252 249 245 240 237 237 236 234 233 229 225 222 219 217 208 192 187 200 209 207 212 223 226 218 227 237 220 197 203 209 203 197 192 189 189 189 188 188 189 189 191 196 198 198 199 198 195 193 191 194 198 200 200 196 192 196 186 162 179 206 202 195 188 168 162 199 218 224
245 245 244 243 243 244 244 245 245 246 247 247 248 249 249 250 251 251 251 251 249 245 241 236 235 235 233 231 228 224 219 215 214 209 197 193 203 209 208 213 221 219 210 219 223 201 186 194 209 203 197 191 189 190 190 190 192 192 191 193 195 196 197 200 200 198 195 197 202 204 202 198 190 186 181 167 162 182 201 198 189 163 155 171 207 231 235
245 245 245 244 244 244 244 245 245 245 245 246 246 247 247 248 248 249 249 250 248 245 241 236 234 235 232 228 225 223 217 213 212 208 198 196 204 208 206 210 220 221 215 219 219 198 186 186 199 204 202 193 186 186 190 193 194 195 195 197 197 196 197 199 197 194 196 203 208 206 203 199 188 177 169 166 174 194 201 190 174 159 179 201 218 230 232
243 244 245 245 244 244 244 244 245 245 245 245 245 245 246 245 246 247 247 248 247 243 239 236 235 235 233 228 225 223 218 215 213 206 196 195 201 206 207 208 212 218 217 213 210 202 196 193 192 197 198 192 185 185 190 194 195 195 198 201 200 198 198 198 193 189 194 203 206 204 204 201 188 177 176 178 186 200 199 189 176 176 196 214 221 218 207
243 243 244 245 244 243 243 243 244 244 244 244 243 244 244 243 243 244 244 245 245 241 235 232 233 235 233 230 227 223 218 215 214 207 199 196 197 204 209 207 207 213 214 207 204 204 200 194 189 191 193 192 191 190 191 194 195 196 200 202 201 200 201 197 192 191 194 197 199 203 205 203 194 184 184 192 201 207 204 197 189 188 201 215 220 215 201
243 242 243 244 244 243 242 242 242 243 243 243 242 242 242 242 241 242 242 242 244 241 233 231 232 232 230 228 225 222 218 215 212 209 205 203 203 205 205 203 206 211 211 208 209 207 199 189 186 189 192 192 194 194 193 194 195 198 201 201 199 200 201 196 192 193 195 194 196 198 198 202 199 187 185 200 212 215 211 202 197 199 209 221 223 221 215
242 242 242 242 243 243 243 242 241 241 241 242 242 241 240 240 239 240 240 240 241 240 235 232 231 227 226 226 223 219 217 214 211 209 207 205 204 204 203 203 205 209 211 214 213 206 198 190 186 190 194 195 195 196 195 195 197 201 204 202 199 199 198 195 192 193 197 199 198 195 193 198 199 194 198 211 218 217 211 203 201 206 216 225 224 221 222
241 241 241 241 241 241 242 242 241 240 240 240 241 240 239 238 237 236 236 236 238 238 233 230 228 225 226 229 227 223 221 215 210 210 210 208 204 203 203 203 204 208 210 210 207 202 198 193 190 192 195 196 197 199 200 200 200 202 204 202 200 199 198 196 193 192 194 195 194 195 197 197 196 198 210 221 222 218 210 203 201 201 207 222 224 220 224
239 240 240 241 240 240 240 241 240 240 239 239 239 239 237 236 235 234 234 234 235 235 232 230 228 226 226 226 222 219 217 211 206 206 209 209 207 204 202 199 200 206 206 203 202 199 196 194 194 194 193 195 198 200 204 205 204 203 204 204 203 200 197 196 194 192 193 193 193 198 202 199 196 201 215 225 225 220 214 210 209 206 208 222 230 230 233
237 238 239 240 240 239 239 239 239 239 239 238 237 237 236 235 234 234 233 233 234 234 234 233 230 226 225 223 221 221 218 211 208 205 203 204 206 206 204 198 196 203 207 203 199 195 192 192 191 189 190 196 199 200 204 205 204 205 206 207 207 204 200 199 198 196 198 199 201 206 209 205 203 207 214 218 218 219 216 210 208 211 215 222 228 237 242
236 237 237 238 239 239 238 237 237 237 238 237 236 235 235 234 233 232 231 231 231 231 233 233 228 223 222 220 220 223 221 213 210 205 201 204 206 203 202 198 195 200 205 200 193 191 192 189 185 182 185 193 199 202 204 201 199 205 209 209 211 211 208 206 206 206 204 201 204 210 213 212 211 211 209 203 202 216 220 211 206 212 218 220 224 238 244
234 235 236 236 237 238 237 236 236 236 236 236 235 234 233 233 232 231 230 229 229 228 230 230 226 222 220 218 217 219 216 211 209 205 204 208 207 200 197 196 194 197 201 197 193 193 192 188 183 179 182 190 195 200 201 195 195 205 208 204 206 210 209 207 209 210 208 204 204 207 208 211 214 212 205 198 200 214 223 223 218 219 222 225 232 243 246
233 233 234 235 236 237 236 235 235 234 234 235 234 233 232 231 231 230 228 228 227 225 227 228 225 221 220 218 218 218 215 213 211 209 210 213 209 201 197 196 194 194 196 197 196 192 185 184 184 183 188 196 197 194 191 190 199 208 206 200 201 205 205 206 208 208 204 203 205 205 202 205 212 213 207 203 208 219 225 226 227 228 229 233 239 246 250
232 232 232 233 234 235 235 235 234 233 233 233 233 232 230 229 229 228 227 227 226 223 225 227 225 222 221 219 218 218 217 216 213 212 213 214 208 201 200 202 199 196 195 194 192 187 183 186 189 188 191 196 196 190 188 192 202 207 204 199 203 205 203 204 207 206 200 199 207 213 207 204 208 211 208 207 214 226 233 234 235 235 234 236 240 245 251
231 231 231 232 233 233 234 234 233 232 231 231 231 230 229 228 228 227 226 226 225 223 224 225 224 222 221 219 218 219 219 218 216 214 214 212 205 201 204 206 202 197 195 193 191 189 189 190 190 189 189 190 190 190 193 196 202 206 203 199 201 205 202 200 203 205 201 198 207 216 213 208 209 209 212 219 225 228 231 235 239 243 247 248 246 244 244
230 230 230 230 231 231 232 232 232 231 230 230 230 229 228 226 226 225 224 225 224 223 224 225 224 222 221 219 218 217 217 217 216 215 215 212 205 203 207 207 203 198 196 194 193 194 192 188 187 189 190 188 188 191 194 195 198 203 203 198 199 203 203 200 202 205 203 200 204 210 211 212 212 208 209 219 227 228 228 228 233 245 253 249 242 234 233
229 229 229 229 229 229 230 230 230 230 229 229 228 228 226 224 224 223 223 223 223 222 222 222 221 220 219 219 219 218 218 218 217 216 214 212 208 208 210 209 206 203 199 195 194 194 190 186 188 192 192 190 190 192 195 197 198 200 199 197 200 204 202 198 199 205 209 207 206 208 211 215 216 211 210 216 225 234 237 235 235 241 243 241 239 239 242
228 227 227 227 227 227 227 228 228 228 228 228 227 226 224 223 223 222 222 222 222 222 222 222 220 219 219 220 219 218 219 219 218 216 215 213 212 213 212 210 208 206 202 198 196 193 189 188 191 193 192 193 195 193 193 197 200 198 195 197 204 210 207 201 198 206 216 219 215 213 214 216 217 216 218 221 225 230 236 237 239 243 246 249 251 251 251
226 226 225 225 225 225 225 225 225 226 227 227 226 225 223 222 221 221 220 221 222 222 223 223 221 219 221 221 219 218 219 218 217 216 215 213 214 214 213 212 209 206 203 202 199 195 192 192 193 192 191 196 200 197 194 198 201 199 197 199 204 208 207 203 202 209 221 226 225 221 218 217 217 219 222 223 225 229 233 235 239 247 254 257 256 254 252
223 223 223 223 223 223 222 222 223 224 225 225 225 224 222 221 220 220 219 220 220 220 221 220 217 215 217 218 218 219 219 218 217 217 215 213 214 214 214 213 210 207 206 204 202 198 196 196 195 192 193 200 203 198 196 200 203 203 203 203 205 206 207 207 210 216 223 228 228 225 219 216 218 223 226 225 227 232 237 239 244 253 257 256 255 254 254
219 220 220 220 220 220 220 220 221 222 223 223 224 224 222 220 219 219 218 218 218 219 220 219 216 216 217 217 217 218 219 218 218 218 216 214 214 214 214 214 211 209 208 207 205 203 201 199 197 195 198 204 203 197 198 203 206 205 205 205 206 207 209 212 215 216 220 225 227 223 219 218 219 222 225 227 229 232 235 239 246 255 257 255 254 254 255
216 217 217 217 217 217 217 217 218 220 221 221 222 223 221 219 219 218 217 217 218 219 219 218 217 216 217 217 217 218 218 217 218 218 218 216 215 213 214 214 213 211 209 208 208 206 204 202 200 199 203 206 202 198 201 206 206 204 203 202 201 204 209 214 217 218 222 228 229 225 222 222 221 220 222 227 231 232 234 239 246 253 256 255 254 255 256
213 213 214 214 214 215 215 215 216 218 219 219 221 221 220 218 217 217 216 216 216 217 218 218 216 215 216 216 217 217 217 217 218 218 218 217 216 214 213 214 214 213 210 209 209 208 206 204 203 203 206 208 204 202 204 206 203 201 200 199 199 204 211 216 218 219 223 228 230 228 225 222 222 225 228 232 234 236 239 244 249 253 255 256 257 256 256
210 210 211 211 212 212 213 213 214 215 216 217 218 219 218 217 216 215 215 215 215 216 217 217 216 215 215 216 217 217 217 217 217 218 218 218 217 214 213 213 214 213 212 210 209 208 208 207 205 205 208 209 207 205 207 206 201 199 201 201 202 205 211 215 216 218 220 224 228 230 227 224 225 229 232 233 236 240 244 247 250 251 253 256 257 257 257
207 207 208 209 209 210 211 211 212 213 214 215 216 217 217 217 215 215 214 214 214 214 216 216 216 215 215 217 217 217 217 218 218 218 219 219 218 216 214 213 213 213 213 213 211 210 210 209 207 208 210 212 210 208 209 207 203 201 204 205 204 206 210 214 217 220 223 226 229 231 230 228 229 230 232 235 239 242 244 246 247 247 247 249 252 255 257
204 205 206 206 207 207 208 209 210 211 212 213 214 215 216 216 215 215 214 214 213 214 215 216 216 215 216 216 217 216 217 217 218 218 218 219 219 218 216 214 212 213 214 214 213 212 211 210 209 210 212 213 213 212 211 209 205 205 208 210 210 211 213 215 219 223 225 225 228 233 234 233 232 233 236 241 244 244 244 245 246 244 244 246 249 253 257
202 202 203 204 205 205 206 208 208 209 210 211 213 214 215 215 214 214 213 213 213 213 213 215 215 215 215 215 216 216 216 216 217 218 218 218 219 219 218 215 213 214 215 215 214 213 212 211 211 211 212 214 214 213 213 211 207 204 207 212 216 216 215 217 222 225 225 223 226 231 234 233 234 236 239 243 246 244 243 244 246 245 244 246 249 252 255
199 200 201 202 203 204 205 206 207 207 208 210 212 213 213 213 213 213 213 212 212 211 212 214 215 215 215 215 215 216 217 216 217 218 218 218 220 220 219 217 215 214 215 216 215 214 213 212 212 212 213 214 215 215 215 214 209 204 204 209 214 214 213 216 222 225 225 224 225 228 230 231 233 237 239 240 244 245 242 243 247 247 245 245 249 251 252
197 198 199 200 201 202 203 205 205 206 207 209 210 212 212 212 212 212 212 212 212 212 213 214 215 216 216 216 216 218 218 217 218 219 218 219 220 220 219 218 217 215 215 216 215 215 214 213 213 213 213 215 217 217 216 216 213 209 208 210 211 210 211 215 221 224 226 226 227 229 230 230 232 236 239 239 242 244 243 243 246 247 244 245 249 250 249
196 196 197 199 200 201 202 203 204 206 207 208 209 211 211 211 211 212 212 212 212 212 213 214 215 216 217 216 216 218 218 217 218 218 218 220 221 221 220 220 219 216 215 216 216 216 215 214 213 213 213 215 218 218 217 217 216 214 215 216 214 212 214 217 222 225 226 225 227 229 229 228 230 235 239 239 240 242 242 243 245 245 245 246 247 246 244
194 195 196 197 199 199 201 202 204 205 206 207 208 209 210 209 210 211 212 213 213 212 213 214 215 217 217 216 216 218 218 217 217 218 218 220 222 221 221 222 221 218 218 217 217 217 217 215 215 216 215 216 218 217 216 218 219 217 217 219 219 218 220 223 225 227 228 227 227 229 230 230 232 235 237 238 239 239 240 243 245 245 245 245 244 241 240
193 194 195 197 198 199 201 202 203 204 206 207 207 208 208 208 209 210 211 213 213 213 213 214 216 217 217 217 217 218 219 219 218 218 218 220 222 221 222 223 221 220 221 220 218 218 217 216 217 219 218 217 219 218 216 218 221 219 218 219 221 223 224 226 227 228 229 229 228 229 231 233 234 235 236 237 239 239 239 241 243 244 243 242 241 240 239
191 192 194 196 198 199 200 202 203 205 206 206 206 207 207 207 208 209 211 213 214 213 214 214 215 216 217 217 217 218 219 219 219 218 218 220 222 222 222 223 221 220 222 222 219 217 217 215 216 220 221 219 219 219 217 218 220 220 217 218 221 224 226 227 228 229 230 231 230 230 232 233 234 234 235 236 238 239 237 237 240 243 244 243 242 242 242
190 191 194 196 198 199 200 202 203 205 206 206 206 206 206 207 208 210 212 214 215 214 214 215 215 216 216 217 217 217 217 218 218 218 217 219 222 222 222 223 221 220 223 223 219 216 216 216 215 218 221 222 221 221 222 223 222 220 218 218 221 224 226 227 228 228 229 230 230 230 231 232 232 233 234 235 237 239 239 238 240 244 246 246 246 246 246
189 192 194 195 197 198 199 201 203 204 205 206 207 207 207 207 209 211 213 215 216 216 216 216 216 216 217 217 217 218 218 218 219 218 217 218 220 221 221 221 221 220 222 224 221 216 216 217 216 217 220 223 222 222 225 227 225 223 221 222 223 225 227 228 228 228 229 230 230 231 232 233 234 235 237 239 241 243 244 244 245 247 248 250 250 250 250
190 192 194 195 197 198 199 201 202 204 205 206 206 207 207 209 210 212 213 215 216 216 216 216 216 217 217 217 217 218 218 218 219 220 218 218 219 220 219 219 220 220 221 223 222 218 216 217 217 217 219 221 221 222 226 229 228 227 226 226 227 228 229 231 231 232 233 233 233 234 236 237 238 239 242 244 245 246 248 248 249 250 251 252 253 254 254
189 191 193 195 197 198 199 200 202 203 205 206 207 207 208 209 210 212 213 214 215 216 215 216 216 216 216 216 217 218 218 218 219 220 220 218 219 221 221 220 220 221 222 224 224 221 217 217 218 219 219 220 220 223 226 229 230 229 230 230 230 231 232 233 234 235 236 237 237 237 238 239 240 241 243 245 247 249 250 251 252 253 253 254 256 257 258
189 190 192 194 196 197 198 200 202 203 205 206 207 208 209 209 210 211 212 213 214 215 215 215 216 215 215 216 217 218 218 218 219 220 221 220 220 221 222 222 221 222 222 224 224 223 220 218 220 222 221 220 222 225 228 229 230 230 231 233 233 233 234 235 236 237 239 240 240 240 241 242 242 243 244 246 247 249 251 252 253 255 256 257 258 259 260
188 190 191 193 195 196 198 200 202 203 204 206 207 207 208 209 210 210 211 212 213 215 215 215 216 216 216 216 218 218 218 219 220 221 222 222 221 221 223 223 223 223 223 223 225 225 223 221 222 225 225 224 225 228 230 231 231 232 233 234 235 236 236 237 238 239 240 241 243 244 245 245 245 246 246 247 248 250 251 253 254 255 257 258 259 260 261
188 189 191 192 194 196 197 199 200 202 203 205 205 206 207 208 208 209 210 211 213 214 215 216 216 216 216 217 218 219 219 220 220 221 222 223 223 222 223 224 224 224 223 223 225 226 226 224 225 227 227 227 228 230 231 232 233 234 235 236 237 238 238 239 239 240 240 241 243 244 246 247 247 248 248 248 249 250 251 253 254 256 257 258 259 260 261
187 189 191 192 194 195 197 198 199 201 202 203 204 205 206 207 207 208 209 211 212 214 216 216 216 217 217 217 218 219 219 220 221 221 222 223 223 223 223 223 224 225 224 224 224 226 227 226 226 227 228 229 230 232 233 234 234 236 237 238 239 240 240 240 241 241 241 242 242 243 245 246 247 248 248 249 250 251 252 253 254 256 257 258 260 261 262
188 189 191 192 194 195 196 197 198 199 201 202 203 204 205 206 207 207 209 210 212 214 215 216 217 217 218 218 219 219 220 220 221 222 222 223 224 224 224 224 225 226 226 226 226 227 228 229 229 229 230 232 233 235 236 237 238 238 239 241 241 242 242 242 242 242 243 243 243 243 244 245 246 247 248 249 250 251 252 253 254 255 257 258 260 261 262
188 190 192 193 194 195 196 197 198 199 200 202 203 204 204 205 207 208 209 210 211 213 215 216 217 217 218 219 219 220 221 221 222 223 223 224 224 224 225 225 225 226 227 228 228 228 229 231 232 232 232 233 235 236 238 240 241 241 241 242 243 244 244 245 245 245 245 245 245 244 245 245 246 246 248 249 250 251 251 252 253 255 256 258 259 260 262
Height
10814 10815 10816 10818 10819 10820 10821 10822 10823 10824 10825 10826 10827 10828 10829 10829 10831 10832 10833 10835 10836 10837 10838 10839 10841 10842 10844 10845 10846 10848 10849 10851 10852 10853 10855 10856 10857 10858 10858 10859 10859 10860 10861 10861 10862 10863 10864 10864 10865 10866 10867 10869 10872 10874 10877 10880 10882 10885 10889 10893 10896 10899 10901 10904 10907 10911 10913 10916 10918 10920 10922 10924 10926 10929 10931 10933 10934 10934 10936 10938 10939 10940 10940 10941 10942 10944 10945
10811 10812 10813 10815 10816 10818 10819 10819 10820 10821 10822 10823 10824 10825 10826 10827 10828 10829 10830 10832 10833 10835 10836 10837 10838 10840 10841 10843 10844 10846 10848 10849 10851 10852 10853 10854 10855 10856 10857 10857 10857 10858 10858 10859 10860 10861 10861 10862 10862 10863 10865 10867 10869 10872 10875 10877 10879 10882 10886 10890 10893 10896 10899 10902 10906 10908 10911 10913 10915 10918 10920 10923 10925 10928 10930 10932 10933 10933 10935 10937 10937 10938 10939 10940 10941 10942 10943
10807 10808 10810 10812 10813 10815 10816 10817 10817 10818 10820 10821 10822 10823 10824 10825 10825 10826 10828 10829 10831 10832 10833 10835 10836 10838 10839 10841 10843 10844 10846 10848 10849 10850 10851 10852 10853 10853 10854 10854 10855 10856 10856 10857 10858 10858 10859 10859 10860 10862 10864 10865 10867 10869 10872 10874 10877 10882 10886 10889 10891 10894 10899 10903 10905 10907 10910 10913 10915 10917 10919 10922 10924 10926 10928 10930 10932 10933 10934 10935 10936 10937 10938 10939 10941 10941 10941
10803 10805 10806 10808 10810 10811 10813 10814 10815 10816 10817 10818 10819 10820 10821 10822 10823 10824 10825 10826 10828 10830 10831 10832 10834 10835 10837 10839 10841 10842 10844 10846 10848 10849 10849 10850 10851 10852 10851 10851 10852 10854 10855 10855 10855 10856 10857 10857 10858 10860 10861 10862 10865 10867 10870 10874 10879 10885 10888 10889 10891 10896 10901 10903 10905 10907 10910 10912 10914 10916 10918 10921 10923 10925 10927 10929 10930 10932 10933 10934 10935 10936 10937 10938 10939 10940 10940
10798 10800 10802 10804 10806 10807 10809 10811 10812 10813 10814 10815 10816 10817 10819 10820 10820 10821 10822 10823 10825 10827 10828 10829 10831 10833 10835 10837 10838 10840 10843 10844 10846 10847 10848 10849 10850 10851 10851 10850 10850 10852 10853 10853 10853 10854 10855 10855 10856 10857 10857 10860 10863 10866 10871 10877 10882 10883 10884 10887 10891 10896 10900 10902 10904 10907 10910 10912 10914 10916 10918 10921 10923 10924 10926 10928 10930 10931 10932 10933 10934 10935 10936 10937 10937 10938 10938
10793 10795 10797 10799 10801 10803 10805 10807 10808 10809 10811 10812 10814 10815 10816 10817 10818 10818 10819 10820 10822 10824 10826 10827 10828 10831 10833 10835 10837 10839 10841 10843 10844 10845 10846 10846 10848 10849 10850 10850 10850 10851 10851 10851 10851 10852 10853 10853 10854 10855 10857 10860 10863 10867 10873 10877 10878 10879 10882 10887 10891 10895 10897 10900 10903 10906 10909 10912 10914 10916 10918 10920 10922 10923 10925 10927 10929 10930 10931 10932 10933 10934 10935 10935 10936 10936 10937
10788 10790 10792 10794 10796 10798 10800 10803 10804 10806 10807 10809 10811 10812 10813 10814 10815 10816 10816 10817 10819 10821 10823 10824 10826 10828 10830 10832 10835 10837 10840 10841 10842 10843 10844 10845 10846 10847 10848 10848 10848 10849 10849 10849 10850 10851 10851 10852 10854 10856 10858 10860 10864 10868 10871 10872 10874 10878 10883 10886 10890 10893 10897 10900 10903 10906 10908 10911 10913 10915 10917 10919 10921 10923 10925 10926 10927 10929 10930 10931 10931 10932 10933 10933 10934 10934 10935
10782 10785 10787 10789 10791 10794 10796 10798 10800 10802 10804 10805 10807 10809 10810 10811 10812 10813 10813 10814 10816 10818 10820 10822 10823 10825 10827 10830 10832 10835 10837 10839 10840 10841 10842 10843 10844 10845 10846 10846 10846 10847 10848 10848 10849 10850 10851 10852 10854 10856 10858 10861 10864 10867 10869 10872 10876 10881 10884 10886 10889 10892 10896 10899 10902 10905 10908 10910 10912 10914 10917 10919 10921 10922 10924 10925 10926 10928 10929 10929 10930 10930 10930 10930 10931 10932 10934
10777 10779 10781 10784 10786 10788 10791 10793 10795 10797 10799 10801 10803 10805 10806 10808 10809 10810 10811 10812 10813 10815 10817 10819 10820 10822 10825 10827 10829 10832 10834 10836 10838 10839 10841 10841 10842 10843 10844 10845 10845 10847 10849 10849 10848 10849 10851 10852 10854 10855 10858 10861 10864 10866 10869 10873 10877 10880 10883 10886 10890 10893 10896 10899 10902 10904 10907 10910 10912 10914 10916 10918 10920 10922 10923 10925 10926 10926 10927 10927 10928 10928 10928 10929 10930 10931 10931
10771 10773 10775 10778 10781 10783 10786 10788 10790 10792 10795 10797 10799 10801 10802 10804 10806 10807 10808 10809 10809 10812 10815 10816 10818 10819 10821 10824 10826 10829 10832 10834 10836 10838 10840 10841 10841 10841 10842 10844 10844 10846 10848 10848 10848 10849 10851 10853 10854 10855 10858 10861 10864 10867 10870 10874 10877 10880 10883 10886 10889 10893 10896 10899 10901 10904 10907 10909 10911 10913 10915 10917 10919 10921 10922 10924 10925 10925 10925 10926 10927 10927 10927 10928 10928 10928 10928
10764 10767 10769 10772 10775 10778 10780 10783 10785 10787 10790 10792 10795 10797 10798 10800 10803 10804 10805 10805 10807 10809 10812 10814 10815 10816 10818 10820 10824 10827 10829 10831 10833 10836 10839 10840 10840 10839 10841 10843 10843 10845 10847 10847 10848 10850 10851 10853 10854 10856 10858 10861 10864 10868 10872 10875 10878 10880 10883 10885 10889 10892 10895 10898 10901 10904 10906 10908 10910 10912 10915 10916 10918 10920 10921 10923 10924 10924 10925 10926 10926 10927 10927 10926 10924 10923 10923
10758 10760 10763 10766 10769 10772 10775 10777 10780 10782 10784 10787 10790 10792 10794 10796 10799 10800 10801 10802 10804 10806 10808 10811 10813 10813 10814 10818 10821 10823 10826 10828 10830 10833 10836 10837 10836 10837 10840 10842 10843 10844 10845 10846 10847 10849 10850 10851 10853 10856 10858 10861 10864 10869 10873 10876 10878 10881 10884 10886 10889 10892 10895 10897 10900 10903 10905 10907 10909 10912 10914 10915 10916 10918 10920 10921 10923 10923 10923 10925 10926 10927 10926 10924 10922 10921 10922
10751 10754 10756 10760 10763 10766 10769 10772 10774 10777 10779 10782 10785 10787 10789 10792 10794 10797 10798 10799 10801 10803 10805 10808 10810 10810 10812 10816 10818 10821 10823 10825 10827 10830 10833 10834 10834 10836 10839 10841 10841 10843 10844 10845 10847 10848 10849 10850 10852 10855 10859 10862 10865 10868 10871 10875 10878 10881 10884 10886 10889 10892 10894 10897 10900 10902 10904 10906 10908 10911 10913 10914 10915 10917 10918 10919 10921 10922 10922 10924 10925 10926 10925 10924 10922 10923 10925
10744 10747 10749 10753 10756 10760 10763 10766 10768 10771 10774 10776 10780 10782 10784 10787 10790 10792 10794 10796 10797 10800 10802 10804 10805 10807 10810 10813 10814 10817 10820 10822 10825 10827 10829 10830 10831 10833 10836 10839 10840 10840 10841 10843 10845 10847 10848 10849 10852 10855 10858 10861 10865 10868 10871 10874 10877 10880 10883 10885 10888 10891 10893 10896 10899 10901 10903 10905 10907 10909 10911 10913 10914 10916 10917 10918 10920 10920 10920 10923 10925 10925 10924 10923 10923 10925 10927
10736 10739 10742 10746 10749 10753 10756 10760 10763 10765 10768 10771 10774 10776 10779 10782 10786 10788 10790 10793 10794 10796 10798 10800 10802 10805 10807 10808 10810 10813 10817 10820 10823 10825 10826 10828 10828 10830 10834 10837 10838 10838 10839 10841 10843 10845 10846 10848 10851 10854 10858 10861 10864 10866 10870 10873 10876 10878 10881 10884 10887 10889 10892 10896 10899 10901 10903 10905 10906 10908 10911 10912 10914 10914 10916 10917 10918 10918 10919 10922 10924 10924 10924 10923 10923 10925 10926
10727 10731 10735 10738 10742 10746 10750 10753 10757 10759 10762 10765 10768 10771 10774 10778 10781 10783 10786 10789 10790 10792 10796 10798 10799 10801 10802 10803 10806 10811 10814 10817 10820 10822 10824 10825 10826 10828 10831 10834 10836 10836 10838 10840 10842 10843 10845 10847 10850 10853 10856 10859 10861 10864 10868 10871 10874 10877 10880 10883 10885 10888 10891 10894 10897 10899 10901 10903 10905 10908 10909 10911 10912 10914 10915 10916 10917 10918 10919 10921 10922 10923 10923 10924 10924 10924 10924
10718 10722 10726 10730 10734 10738 10742 10746 10750 10753 10756 10759 10762 10766 10770 10773 10776 10778 10781 10784 10786 10789 10792 10793 10793 10795 10799 10802 10807 10810 10812 10814 10817 10819 10821 10823 10824 10826 10828 10831 10833 10834 10836 10839 10840 10842 10844 10847 10849 10851 10853 10857 10860 10864 10867 10870 10873 10875 10878 10881 10883 10886 10889 10892 10895 10897 10899 10901 10904 10906 10908 10910 10912 10913 10914 10914 10916 10917 10918 10920 10921 10921 10921 10922 10922 10922 10921
10708 10713 10717 10721 10725 10730 10734 10738 10743 10747 10750 10753 10757 10760 10764 10767 10769 10772 10776 10780 10782 10785 10787 10787 10790 10795 10799 10801 10804 10805 10807 10809 10813 10816 10819 10821 10823 10824 10826 10828 10830 10832 10835 10837 10838 10840 10843 10846 10849 10851 10854 10858 10861 10863 10866 10869 10872 10874 10877 10879 10882 10885 10888 10890 10892 10894 10897 10900 10902 10904 10907 10909 10910 10911 10912 10913 10915 10916 10917 10919 10920 10919 10919 10920 10921 10920 10920
10698 10703 10708 10712 10717 10721 10726 10730 10736 10740 10743 10747 10751 10754 10757 10761 10764 10768 10772 10775 10778 10781 10783 10785 10789 10794 10796 10797 10799 10800 10803 10807 10810 10813 10817 10819 10820 10822 10825 10827 10829 10831 10833 10835 10837 10839 10841 10844 10848 10851 10854 10857 10860 10863 10866 10868 10871 10873 10875 10878 10880 10882 10885 10887 10889 10892 10896 10899 10901 10903 10905 10907 10908 10909 10910 10912 10914 10915 10914 10915 10917 10917 10917 10918 10919 10919 10918
10687 10693 10698 10703 10707 10712 10717 10722 10728 10733 10737 10741 10745 10748 10751 10756 10760 10763 10767 10770 10774 10778 10780 10782 10786 10789 10790 10793 10795 10797 10801 10806 10808 10810 10813 10813 10814 10818 10822 10824 10826 10828 10830 10832 10834 10836 10839 10843 10846 10848 10852 10856 10860 10862 10864 10866 10869 10872 10874 10877 10879 10881 10884 10887 10889 10893 10896 10898 10900 10901 10903 10904 10906 10907 10909 10911 10913 10912 10910 10911 10913 10913 10914 10915 10916 10916 10916
10675 10681 10687 10693 10698 10703 10708 10714 10719 10725 10730 10734 10738 10742 10746 10750 10754 10758 10762 10765 10769 10774 10775 10777 10779 10782 10784 10788 10791 10793 10797 10801 10803 10805 10806 10806 10808 10813 10819 10822 10824 10827 10829 10830 10833 10835 10838 10842 10845 10847 10849 10853 10856 10859 10861 10865 10867 10869 10872 10874 10877 10879 10883 10886 10888 10891 10894 10897 10898 10899 10901 10903 10904 10906 10907 10908 10909 10909 10909 10909 10910 10911 10912 10913 10914 10914 10915
10662 10669 10676 10682 10688 10693 10699 10705 10710 10716 10722 10727 10731 10736 10740 10744 10748 10752 10756 10759 10764 10768 10769 10770 10773 10777 10780 10784 10787 10789 10793 10796 10798 10801 10803 10804 10808 10813 10817 10819 10820 10822 10824 10827 10831 10834 10836 10840 10843 10845 10848 10850 10853 10856 10860 10863 10865 10866 10870 10873 10875 10877 10881 10883 10885 10888 10891 10894 10896 10898 10899 10901 10902 10903 10905 10906 10907 10908 10908 10908 10909 10909 10910 10912 10912 10912 10913
10648 10656 10664 10671 10677 10683 10689 10696 10702 10708 10713 10719 10725 10729 10733 10737 10742 10747 10751 10754 10758 10762 10763 10764 10769 10774 10776 10780 10784 10787 10790 10792 10795 10798 10800 10802 10808 10812 10814 10815 10816 10818 10820 10823 10828 10831 10833 10835 10838 10841 10845 10848 10852 10855 10858 10860 10861 10863 10868 10872 10874 10876 10879 10881 10883 10886 10890 10894 10896 10897 10897 10898 10899 10901 10904 10905 10905 10906 10906 10906 10906 10907 10908 10910 10911 10911 10912
10634 10643 10652 10660 10667 10673 10679 10686 10693 10699 10705 10712 10717 10721 10726 10731 10736 10741 10745 10747 10751 10755 10757 10760 10765 10769 10772 10778 10782 10784 10786 10789 10792 10794 10796 10800 10806 10809 10810 10811 10813 10816 10818 10822 10825 10828 10831 10833 10835 10838 10841 10844 10848 10852 10854 10857 10859 10862 10865 10868 10871 10874 10877 10879 10881 10884 10888 10891 10894 10894 10894 10894 10896 10898 10902 10904 10904 10904 10904 10904 10904 10905 10906 10908 10909 10910 10911
10619 10629 10639 10648 10655 10662 10669 10676 10684 10690 10697 10703 10708 10713 10720 10726 10730 10733 10737 10740 10745 10750 10754 10757 10761 10765 10770 10773 10775 10777 10781 10785 10788 10791 10794 10798 10802 10804 10804 10805 10809 10812 10815 10819 10822 10825 10828 10831 10834 10836 10839 10841 10845 10848 10851 10854 10857 10860 10863 10867 10869 10871 10874 10877 10879 10882 10884 10886 10888 10889 10889 10890 10892 10895 10899 10902 10902 10902 10903 10904 10904 10905 10906 10906 10907 10908 10907
10604 10614 10625 10635 10643 10651 10658 10666 10674 10682 10688 10694 10700 10706 10713 10718 10721 10725 10731 10735 10740 10744 10748 10751 10755 10760 10764 10767 10770 10775 10779 10782 10784 10788 10791 10794 10797 10798 10800 10803 10807 10810 10813 10816 10819 10822 10825 10829 10831 10834 10837 10840 10843 10846 10850 10853 10855 10857 10861 10864 10866 10868 10871 10874 10877 10880 10882 10883 10885 10886 10888 10889 10890 10893 10896 10898 10898 10899 10901 10902 10903 10903 10903 10902 10902 10902 10901
10588 10599 10610 10621 10631 10639 10647 10656 10665 10672 10679 10685 10692 10698 10704 10709 10714 10720 10726 10729 10733 10738 10742 10745 10750 10756 10759 10762 10768 10773 10775 10777 10781 10784 10787 10790 10793 10794 10797 10801 10804 10807 10811 10814 10816 10819 10822 10825 10828 10830 10835 10839 10841 10844 10848 10850 10852 10855 10858 10861 10863 10866 10870 10872 10874 10877 10880 10881 10882 10883 10885 10887 10888 10889 10891 10893 10894 10894 10895 10897 10899 10900 10898 10897 10897 10897 10896
10573 10584 10596 10607 10618 10628 10637 10646 10655 10663 10669 10676 10682 10689 10695 10702 10708 10714 10719 10723 10728 10734 10738 10742 10749 10755 10757 10759 10763 10766 10768 10772 10777 10780 10783 10786 10789 10791 10794 10798 10801 10804 10808 10810 10812 10815 10819 10821 10823 10828 10833 10837 10839 10842 10845 10847 10849 10852 10854 10857 10860 10864 10868 10870 10871 10874 10876 10877 10878 10881 10883 10886 10887 10887 10888 10889 10890 10891 10891 10892 10894 10895 10894 10893 10892 10893 10893
10557 10570 10582 10594 10606 10616 10626 10636 10645 10652 10659 10666 10673 10680 10688 10696 10702 10707 10713 10718 10723 10727 10730 10735 10743 10747 10748 10752 10757 10761 10764 10769 10772 10775 10779 10782 10784 10787 10791 10794 10797 10801 10803 10806 10809 10812 10814 10817 10820 10826 10830 10832 10833 10837 10841 10843 10845 10848 10851 10854 10859 10862 10864 10867 10869 10871 10872 10873 10875 10878 10881 10883 10885 10885 10886 10886 10887 10888 10888 10888 10888 10889 10889 10888 10888 10888 10889
10543 10556 10569 10581 10593 10604 10614 10624 10634 10641 10649 10657 10665 10672 10682 10691 10696 10701 10707 10711 10715 10719 10724 10730 10736 10739 10742 10748 10752 10755 10759 10764 10767 10771 10775 10777 10780 10784 10787 10790 10793 10796 10799 10803 10806 10808 10811 10815 10819 10824 10825 10824 10827 10833 10837 10838 10840 10844 10848 10853 10856 10859 10862 10865 10867 10869 10870 10870 10871 10873 10877 10880 10881 10882 10882 10882 10882 10883 10884 10884 10884 10884 10884 10885 10885 10885 10886
10530 10543 10556 10568 10581 10592 10603 10613 10622 10630 10640 10650 10658 10667 10678 10685 10689 10693 10699 10704 10708 10713 10719 10725 10731 10735 10740 10744 10747 10750 10755 10759 10762 10766 10769 10773 10776 10780 10783 10786 10789 10792 10796 10799 10802 10806 10810 10813 10815 10818 10818 10820 10825 10831 10832 10833 10838 10843 10847 10850 10853 10855 10858 10861 10863 10866 10867 10867 10868 10871 10874 10876 10878 10879 10879 10878 10878 10879 10880 10880 10880 10881 10881 10881 10882 10882 10883
10517 10531 10543 10556 10569 10581 10592 10602 10612 10622 10633 10644 10653 10661 10669 10674 10678 10684 10691 10696 10702 10707 10713 10719 10725 10730 10734 10737 10741 10745 10750 10754 10757 10761 10765 10768 10772 10775 10778 10782 10785 10789 10793 10796 10799 10802 10804 10806 10809 10813 10815 10818 10823 10826 10828 10830 10836 10840 10844 10847 10850 10851 10852 10855 10859 10862 10863 10863 10865 10868 10870 10872 10873 10874 10875 10875 10876 10876 10876 10875 10876 10877 10878 10879 10879 10879 10880
10505 10519 10532 10545 10557 10570 10581 10592 10603 10614 10624 10634 10642 10650 10657 10662 10668 10676 10683 10689 10695 10702 10707 10713 10719 10724 10728 10732 10736 10740 10744 10748 10752 10756 10760 10763 10767 10771 10774 10778 10782 10785 10789 10791 10794 10796 10799 10802 10806 10810 10812 10814 10818 10822 10825 10828 10833 10837 10840 10843 10845 10846 10847 10851 10854 10857 10858 10860 10862 10865 10866 10868 10869 10869 10871 10872 10872 10872 10872 10872 10872 10875 10877 10877 10876 10875 10876
10494 10508 10521 10534 10547 10559 10571 10582 10592 10603 10614 10624 10634 10642 10648 10655 10663 10670 10676 10683 10690 10696 10701 10708 10714 10719 10722 10726 10731 10736 10740 10744 10748 10752 10755 10759 10763 10766 10770 10774 10778 10781 10784 10786 10789 10793 10796 10800 10804 10807 10808 10810 10815 10819 10822 10825 10830 10834 10835 10837 10839 10841 10844 10847 10850 10853 10855 10858 10860 10862 10863 10864 10865 10866 10867 10868 10867 10867 10867 10868 10870 10872 10874 10874 10871 10870 10872
10483 10497 10511 10524 10536 10549 10560 10571 10583 10595 10607 10618 10627 10634 10640 10648 10657 10665 10672 10679 10686 10692 10698 10704 10709 10712 10717 10722 10727 10731 10734 10738 10742 10746 10750 10754 10758 10761 10766 10770 10774 10777 10780 10783 10787 10791 10794 10797 10800 10803 10805 10808 10812 10815 10817 10820 10825 10829 10831 10833 10836 10838 10841 10844 10846 10849 10851 10853 10855 10857 10858 10859 10860 10861 10862 10861 10862 10863 10864 10864 10866 10868 10868 10868 10868 10868 10869
10474 10488 10501 10514 10526 10539 10551 10564 10576 10589 10601 10612 10620 10627 10635 10643 10651 10658 10666 10673 10680 10687 10692 10696 10700 10705 10711 10716 10720 10724 10728 10733 10737 10741 10745 10749 10753 10757 10762 10767 10771 10773 10776 10780 10784 10787 10790 10793 10796 10799 10801 10805 10808 10810 10811 10815 10821 10826 10829 10830 10832 10834 10838 10841 10843 10845 10846 10848 10849 10851 10852 10853 10855 10855 10856 10857 10857 10858 10860 10860 10861 10862 10864 10865 10865 10866 10866
10466 10479 10493 10506 10519 10532 10545 10557 10571 10584 10595 10604 10612 10619 10626 10634 10642 10650 10658 10666 10673 10679 10684 10688 10694 10700 10704 10709 10714 10718 10723 10728 10733 10736 10741 10746 10749 10753 10758 10762 10766 10769 10773 10776 10780 10783 10786 10789 10792 10795 10799 10801 10803 10805 10808 10813 10819 10822 10824 10825 10826 10829 10833 10836 10838 10839 10841 10843 10844 10846 10847 10848 10850 10850 10851 10852 10852 10853 10856 10857 10857 10859 10861 10862 10862 10862 10862
10460 10473 10487 10500 10514 10528 10541 10555 10568 10579 10588 10595 10601 10609 10616 10626 10635 10645 10653 10661 10668 10674 10678 10684 10689 10694 10698 10705 10711 10715 10719 10725 10729 10732 10737 10742 10744 10749 10753 10757 10761 10765 10769 10772 10776 10779 10782 10785 10789 10792 10795 10797 10798 10801 10806 10811 10814 10816 10818 10820 10821 10824 10827 10830 10831 10833 10835 10838 10840 10841 10842 10844 10845 10846 10847 10848 10848 10849 10852 10853 10853 10855 10858 10858 10858 10858 10859
10456 10469 10483 10497 10510 10524 10538 10552 10563 10571 10578 10585 10593 10602 10611 10622 10631 10640 10649 10657 10663 10669 10674 10680 10685 10688 10694 10702 10708 10710 10714 10720 10724 10728 10734 10737 10740 10744 10749 10752 10756 10761 10764 10767 10771 10774 10778 10782 10786 10788 10790 10792 10795 10799 10803 10806 10808 10811 10813 10816 10819 10821 10823 10824 10826 10828 10830 10832 10834 10836 10838 10840 10841 10841 10842 10843 10844 10846 10849 10850 10850 10852 10853 10853 10854 10855 10855
10455 10468 10481 10494 10507 10520 10532 10541 10550 10558 10567 10576 10585 10595 10605 10616 10625 10635 10645 10652 10658 10664 10671 10676 10679 10683 10690 10697 10701 10704 10709 10715 10719 10724 10730 10733 10735 10740 10744 10747 10752 10757 10761 10763 10767 10771 10775 10779 10782 10784 10787 10789 10791 10795 10799 10801 10804 10807 10810 10812 10815 10817 10818 10820 10821 10823 10825 10828 10830 10831 10833 10835 10836 10837 10838 10839 10841 10843 10845 10846 10846 10847 10848 10849 10850 10851 10851
10454 10466 10479 10492 10504 10514 10523 10532 10541 10550 10559 10568 10579 10589 10600 10610 10621 10631 10640 10647 10654 10661 10666 10669 10673 10679 10686 10692 10696 10699 10705 10711 10716 10722 10726 10727 10730 10735 10739 10743 10749 10754 10757 10759 10764 10768 10772 10776 10778 10780 10783 10786 10788 10792 10796 10798 10799 10802 10805 10808 10810 10812 10813 10815 10816 10819 10821 10824 10826 10827 10829 10831 10832 10833 10835 10836 10837 10839 10841 10842 10842 10842 10844 10845 10846 10847 10847
10451 10464 10476 10486 10495 10505 10515 10526 10537 10546 10554 10563 10574 10585 10596 10607 10618 10628 10637 10644 10651 10656 10658 10661 10667 10674 10680 10685 10689 10695 10701 10707 10712 10716 10719 10722 10726 10731 10734 10739 10745 10750 10751 10753 10759 10764 10767 10771 10774 10777 10779 10782 10784 10788 10791 10793 10794 10797 10801 10804 10806 10807 10808 10810 10812 10815 10818 10820 10822 10823 10825 10826 10828 10829 10831 10832 10833 10834 10836 10837 10837 10838 10839 10841 10842 10843 10843
10447 10457 10467 10475 10485 10497 10510 10521 10530 10540 10550 10562 10573 10584 10595 10607 10617 10626 10634 10641 10644 10647 10651 10656 10662 10668 10672 10678 10684 10691 10696 10700 10704 10709 10714 10718 10722 10726 10730 10735 10741 10744 10745 10747 10753 10759 10763 10766 10770 10773 10774 10776 10781 10785 10787 10788 10790 10794 10798 10800 10801 10802 10804 10806 10809 10811 10813 10815 10817 10819 10820 10821 10823 10825 10826 10828 10829 10830 10831 10833 10834 10834 10835 10836 10837 10838 10839
10444 10452 10461 10471 10483 10495 10506 10516 10527 10538 10551 10564 10576 10588 10599 10609 10618 10625 10632 10636 10638 10642 10647 10652 10657 10662 10667 10674 10681 10686 10690 10694 10698 10703 10709 10713 10715 10719 10725 10730 10734 10737 10738 10741 10748 10756 10759 10762 10766 10769 10770 10773 10778 10782 10782 10782 10786 10790 10793 10795 10797 10799 10800 10802 10805 10807 10809 10811 10812 10814 10816 10817 10819 10821 10822 10823 10825 10826 10826 10828 10829 10830 10831 10832 10833 10834 10835
10444 10453 10464 10475 10486 10496 10506 10517 10530 10543 10555 10566 10577 10588 10597 10606 10613 10620 10624 10626 10630 10635 10640 10645 10651 10657 10663 10670 10676 10680 10684 10689 10693 10697 10702 10706 10709 10712 10718 10722 10726 10729 10733 10737 10744 10751 10755 10758 10761 10764 10766 10769 10774 10776 10776 10777 10781 10786 10788 10790 10793 10794 10796 10799 10801 10803 10805 10806 10808 10810 10812 10813 10815 10817 10818 10819 10820 10821 10822 10823 10824 10825 10826 10827 10828 10829 10830
10446 10456 10468 10479 10489 10500 10512 10524 10535 10545 10555 10564 10573 10581 10589 10597 10603 10608 10612 10616 10621 10627 10633 10638 10644 10650 10657 10664 10669 10672 10677 10683 10687 10690 10694 10700 10704 10708 10712 10717 10722 10726 10731 10735 10741 10747 10751 10754 10756 10758 10761 10766 10770 10770 10770 10773 10777 10780 10783 10785 10787 10790 10792 10795 10797 10798 10800 10802 10804 10806 10807 10809 10811 10812 10813 10814 10815 10815 10817 10818 10819 10820 10821 10823 10823 10824 10825
10449 10459 10469 10480 10491 10502 10514 10524 10533 10540 10548 10557 10565 10573 10580 10586 10592 10597 10603 10608 10614 10621 10627 10632 10638 10645 10652 10658 10661 10665 10671 10677 10681 10684 10690 10696 10699 10702 10707 10713 10719 10725 10729 10733 10737 10741 10746 10748 10750 10753 10758 10763 10765 10765 10765 10769 10773 10775 10778 10780 10782 10785 10787 10789 10791 10794 10795 10797 10799 10801 10802 10804 10805 10807 10808 10809 10810 10811 10812 10813 10814 10816 10817 10818 10819 10820 10820
10452 10462 10472 10482 10492 10501 10510 10518 10526 10534 10541 10549 10556 10564 10570 10577 10584 10590 10596 10602 10609 10616 10622 10628 10635 10641 10647 10651 10654 10660 10666 10672 10675 10680 10685 10690 10694 10700 10706 10712 10717 10721 10725 10729 10732 10735 10738 10743 10746 10749 10755 10759 10759 10758 10761 10765 10768 10770 10773 10775 10778 10780 10783 10785 10787 10789 10790 10792 10794 10796 10797 10799 10800 10801 10803 10804 10805 10807 10808 10809 10810 10811 10812 10813 10814 10815 10815
10454 10464 10473 10482 10490 10498 10505 10513 10521 10529 10536 10543 10550 10557 10563 10570 10578 10584 10589 10597 10605 10612 10618 10623 10629 10635 10640 10645 10650 10655 10661 10666 10671 10675 10680 10685 10691 10698 10703 10707 10710 10715 10720 10724 10726 10727 10732 10738 10742 10745 10749 10752 10752 10751 10755 10759 10762 10764 10768 10771 10773 10775 10778 10780 10782 10784 10786 10788 10789 10791 10792 10793 10795 10796 10798 10799 10801 10802 10803 10804 10805 10806 10807 10808 10809 10809 10810
10456 10465 10473 10481 10488 10496 10503 10511 10518 10525 10531 10539 10546 10553 10559 10567 10573 10579 10586 10594 10601 10607 10613 10619 10625 10630 10635 10640 10645 10650 10655 10661 10665 10670 10676 10682 10687 10691 10696 10701 10705 10708 10712 10715 10717 10720 10725 10732 10736 10739 10742 10744 10744 10745 10749 10753 10756 10760 10763 10766 10768 10771 10773 10775 10777 10779 10781 10783 10784 10786 10787 10788 10789 10790 10792 10794 10795 10797 10798 10799 10800 10801 10802 10803 10803 10804 10805
10457 10465 10472 10480 10487 10494 10501 10508 10515 10521 10527 10534 10541 10548 10556 10563 10569 10575 10582 10589 10595 10601 10608 10613 10618 10624 10629 10634 10639 10645 10651 10656 10660 10666 10672 10676 10681 10686 10691 10695 10698 10700 10704 10708 10712 10717 10723 10728 10731 10734 10736 10737 10738 10740 10744 10748 10751 10755 10758 10760 10763 10765 10767 10770 10772 10774 10776 10777 10779 10780 10781 10782 10783 10785 10786 10788 10790 10791 10792 10793 10794 10795 10796 10797 10798 10799 10799
10457 10464 10471 10478 10485 10492 10498 10505 10511 10517 10523 10529 10535 10542 10550 10557 10563 10570 10577 10583 10589 10596 10601 10606 10612 10618 10624 10629 10635 10640 10645 10651 10657 10663 10667 10671 10676 10681 10685 10687 10690 10694 10699 10703 10709 10715 10719 10721 10723 10726 10728 10729 10732 10736 10740 10742 10745 10749 10752 10754 10757 10759 10762 10764 10766 10768 10769 10770 10772 10773 10774 10775 10777 10779 10781 10782 10784 10785 10786 10788 10789 10790 10791 10792 10792 10793 10794